Flag for Greece Weather past 2 weeks in Patras, Greece

Now
88 °F

Sunny.


Feels Like: 93 °F
Forecast: 65 / 95 °F
Wind: 7 mph from West

Location: Araxos Airport

Current Time: Sep 4, 2015 at 2:18:39 PM

Latest Report: Sep 4, 2015 at 1:50 PM


Visibility: 10 mi

Pressure: 29.95 "Hg

Humidity: 55%

Dew point: 70 °F

Location of PatrasLocation

Historic Weather in Patras — Graph

°F

Patras temperature yesterday

Maximum temperature yesterday: 88 °F (at 2:50 PM)
Minimum temperature yesterday: 70 °F (at 4:50 AM)
Average temperature yesterday: 80 °F

Past Weeks' High & Low Weather Summary

 TemperatureHumidityPressure
High97 °F (Aug 30, 2:50 PM)100% (Aug 21, 6:20 AM)30.07 "Hg (Aug 21, 6:20 AM)
Low63 °F (Aug 29, 5:50 AM)14% (Aug 29, 2:20 PM)29.86 "Hg (Aug 22, 5:50 PM)
Average83 °F53%29.95 "Hg
* Reported Aug 20 12:20 PM — Sep 4 12:50 PM, Patras, Weather by CustomWeather, © 2015

Note: Actual official high and low records may vary slightly from our data, if they occured in-between our weather recording intervals... More about our weather records

Advertising

Patras weather history for previous 24 hours

 ConditionsComfort  
Time TempWeatherWind HumidityBarometerVisibility
12:50 PM
Fri, Sep 4
88 °FSunny.5 mph55%29.95 "Hg10 mi
12:20 PM88 °FSunny.5 mph59%29.95 "Hg10 mi
11:50 AM88 °FSunny.3 mph59%29.95 "Hg10 mi
11:20 AM86 °FSunny.No wind66%29.95 "Hg10 mi
10:50 AM84 °FClear.No wind70%29.95 "Hg6 mi
10:20 AM84 °FClear.No wind70%29.95 "Hg6 mi
9:50 AM81 °FClear.No wind79%29.95 "Hg6 mi
9:20 AM79 °FClear.No wind84%29.92 "Hg6 mi
8:50 AM75 °FClear.No wind89%29.92 "Hg6 mi
8:20 AM72 °FClear.No wind94%29.92 "Hg5 mi
7:50 AM70 °FClear.No wind100%29.92 "Hg5 mi
7:20 AM70 °FClear.No wind100%29.92 "Hg5 mi
6:50 AM70 °FClear.No wind100%29.89 "Hg6 mi
6:20 AM70 °FPassing clouds.No wind94%29.89 "HgN/A
5:50 AM70 °FPassing clouds.No wind100%29.89 "HgN/A
4:50 AM70 °FPassing clouds.No wind100%29.89 "HgN/A
3:50 AM70 °FPassing clouds.No wind100%29.92 "HgN/A
2:50 AM72 °FPassing clouds.No wind94%29.92 "HgN/A
1:50 AM73 °FPassing clouds.No wind94%29.92 "HgN/A
12:50 AM73 °FPassing clouds.No wind94%29.92 "HgN/A
11:50 PM
Thu, Sep 3
77 °FPassing clouds.No wind83%29.89 "HgN/A
10:50 PM75 °FPassing clouds.No wind89%29.89 "HgN/A
9:50 PM79 °FPassing clouds.No wind84%29.89 "HgN/A
8:50 PM79 °FPassing clouds.3 mph84%29.89 "HgN/A
8:20 PM81 °FPassing clouds.3 mph79%29.89 "HgN/A
7:50 PM82 °FPassing clouds.5 mph70%29.86 "HgN/A
7:20 PM84 °FPassing clouds.6 mph66%29.86 "HgN/A
6:50 PM84 °FPassing clouds.7 mph62%29.86 "HgN/A
6:20 PM86 °FPassing clouds.9 mph66%29.86 "HgN/A
5:50 PM86 °FPassing clouds.9 mph66%29.86 "HgN/A
5:20 PM86 °FPassing clouds.9 mph62%29.86 "HgN/A
4:50 PM88 °FPassing clouds.10 mph59%29.86 "HgN/A
4:20 PM88 °FPassing clouds.10 mph59%29.86 "HgN/A
3:50 PM86 °FPassing clouds.12 mph66%29.89 "HgN/A
3:20 PM86 °FPassing clouds.12 mph66%29.89 "HgN/A
2:50 PM88 °FPassing clouds.8 mph59%29.89 "HgN/A
2:20 PM86 °FPassing clouds.10 mph59%29.89 "HgN/A
Weather by CustomWeather, © 2015

See weather overviewHow to use our weather pages